UTA138 UNNT-USRR

Flight info

Callsign UTA138
Flight time 1h 28m
Altitude 36000
Route DIMID1K DIMID R484 BA R104 KUPON R229 KARPO KARPO1T
Aircraft B738/M-SDE2E3FGHIRWXY/LB1

Departure

Time 2026-04-28 10:05
Airport Novosibirsk Tolmachevo Airport (UNNT)

Arrival

Time 2026-04-28 11:33
Airport Surgut International Airport (USRR)
Time Latitude Longitude Altitude Speed Heading
2026-04-28 09:20 55.01139 82.67019 372 ft 0 kts 171°
2026-04-28 10:01 55.01138 82.67019 372 ft 1 kts 171°
2026-04-28 10:01 55.01121 82.67024 372 ft 5 kts 171°
2026-04-28 10:02 55.01087 82.67005 372 ft 7 kts 239°
2026-04-28 10:02 55.01081 82.66909 372 ft 9 kts 282°
2026-04-28 10:02 55.01099 82.66787 372 ft 12 kts 269°
2026-04-28 10:02 55.01100 82.66685 372 ft 8 kts 290°
2026-04-28 10:03 55.01146 82.66650 372 ft 7 kts 352°
2026-04-28 10:03 55.01208 82.66635 372 ft 10 kts 352°
2026-04-28 10:03 55.01288 82.66615 372 ft 13 kts 352°
2026-04-28 10:03 55.01356 82.66597 373 ft 6 kts 351°
2026-04-28 10:04 55.01380 82.66555 374 ft 5 kts 267°
2026-04-28 10:04 55.01377 82.66525 374 ft 16 kts 260°
2026-04-28 10:04 55.01322 82.65921 372 ft 84 kts 261°
2026-04-28 10:04 55.01192 82.64557 371 ft 141 kts 260°
2026-04-28 10:05 55.01061 82.62646 621 ft 166 kts 263°
2026-04-28 10:05 55.00870 82.60618 1205 ft 174 kts 263°
2026-04-28 10:05 55.00685 82.58556 2017 ft 172 kts 266°
2026-04-28 10:05 55.00546 82.56439 2706 ft 176 kts 264°
2026-04-28 10:06 55.00361 82.54335 3509 ft 174 kts 264°
2026-04-28 10:06 55.00428 82.52170 3877 ft 195 kts 296°
2026-04-28 10:06 55.01343 82.50321 4113 ft 211 kts 319°
2026-04-28 10:06 55.02503 82.48563 4375 ft 230 kts 321°
2026-04-28 10:07 55.03768 82.46711 4657 ft 249 kts 320°
2026-04-28 10:07 55.05108 82.44688 5314 ft 255 kts 319°
2026-04-28 10:07 55.06447 82.42608 5800 ft 257 kts 318°
2026-04-28 10:07 55.07766 82.40512 6011 ft 260 kts 317°
2026-04-28 10:08 55.09114 82.38338 6007 ft 264 kts 317°
2026-04-28 10:08 55.10454 82.36154 6011 ft 262 kts 317°
2026-04-28 10:08 55.11777 82.33983 6016 ft 260 kts 317°
2026-04-28 10:08 55.13090 82.31820 6014 ft 258 kts 317°
2026-04-28 10:09 55.14393 82.29666 6017 ft 257 kts 317°
2026-04-28 10:09 55.15696 82.27510 6000 ft 258 kts 317°
2026-04-28 10:09 55.16999 82.25350 6020 ft 257 kts 317°
2026-04-28 10:09 55.18299 82.23191 6013 ft 258 kts 317°
2026-04-28 10:10 55.19599 82.21028 6014 ft 258 kts 317°
2026-04-28 10:10 55.20911 82.18883 6012 ft 258 kts 322°
2026-04-28 10:10 55.22504 82.17572 6038 ft 260 kts 347°
2026-04-28 10:10 55.24313 82.17125 6583 ft 265 kts 354°
2026-04-28 10:11 55.26167 82.16847 7363 ft 264 kts 355°
2026-04-28 10:11 55.28001 82.16591 8203 ft 264 kts 355°
2026-04-28 10:11 55.29839 82.16321 8954 ft 267 kts 355°
2026-04-28 10:11 55.31702 82.16031 9656 ft 271 kts 355°
2026-04-28 10:12 55.33582 82.15728 10422 ft 272 kts 355°
2026-04-28 10:12 55.35499 82.15415 10858 ft 286 kts 355°
2026-04-28 10:12 55.37562 82.15195 11011 ft 307 kts
2026-04-28 10:12 55.39665 82.16307 11168 ft 329 kts 29°
2026-04-28 10:13 55.41391 82.19098 11307 ft 353 kts 55°
2026-04-28 10:13 55.42296 82.23227 11660 ft 369 kts 75°
2026-04-28 10:13 55.42793 82.27624 12258 ft 373 kts 75°
2026-04-28 10:13 55.43328 82.32114 12872 ft 376 kts 74°
2026-04-28 10:14 55.43895 82.36628 13527 ft 379 kts 74°
2026-04-28 10:14 55.44478 82.41160 14198 ft 381 kts 73°
2026-04-28 10:14 55.45070 82.45733 14805 ft 384 kts 73°
2026-04-28 10:14 55.45666 82.50341 15422 ft 387 kts 73°
2026-04-28 10:15 55.46264 82.54993 16033 ft 390 kts 72°
2026-04-28 10:15 55.46952 82.59620 16614 ft 389 kts 63°
2026-04-28 10:15 55.48368 82.63600 17191 ft 381 kts 42°
2026-04-28 10:15 55.50424 82.66462 17876 ft 374 kts 26°
2026-04-28 10:16 55.52802 82.68278 18551 ft 371 kts 13°
2026-04-28 10:16 55.55351 82.68894 19105 ft 371 kts
2026-04-28 10:16 55.57940 82.69008 19584 ft 374 kts 360°
2026-04-28 10:16 55.60563 82.69040 20043 ft 378 kts 359°
2026-04-28 10:17 55.63198 82.69059 20581 ft 379 kts 359°
2026-04-28 10:17 55.65843 82.69092 21133 ft 380 kts 359°
2026-04-28 10:17 55.68497 82.69143 21616 ft 383 kts 359°
2026-04-28 10:17 55.71168 82.69209 22091 ft 385 kts 360°
2026-04-28 10:18 55.73849 82.69286 22640 ft 385 kts
2026-04-28 10:18 55.76510 82.69377 23015 ft 389 kts 360°
2026-04-28 10:18 55.79225 82.69459 23503 ft 390 kts 360°
2026-04-28 10:18 55.81941 82.69542 24029 ft 390 kts 360°
2026-04-28 10:19 55.84665 82.69625 24379 ft 392 kts 359°
2026-04-28 10:19 55.87411 82.69710 24654 ft 396 kts 359°
2026-04-28 10:19 55.90174 82.69797 24999 ft 398 kts 359°
2026-04-28 10:19 55.92954 82.69885 25363 ft 399 kts 359°
2026-04-28 10:20 55.95738 82.69974 25696 ft 401 kts 359°
2026-04-28 10:20 55.98536 82.70063 26014 ft 403 kts 359°
2026-04-28 10:20 56.01345 82.70152 26329 ft 405 kts 359°
2026-04-28 10:20 56.04168 82.70242 26640 ft 406 kts 359°
2026-04-28 10:21 56.06996 82.70075 26918 ft 407 kts 351°
2026-04-28 10:21 56.09728 82.68707 27212 ft 410 kts 341°
2026-04-28 10:21 56.12399 82.66887 27516 ft 411 kts 340°
2026-04-28 10:21 56.15043 82.65061 27870 ft 411 kts 340°
2026-04-28 10:22 56.17706 82.63224 28312 ft 409 kts 340°
2026-04-28 10:22 56.20361 82.61403 28791 ft 406 kts 340°
2026-04-28 10:22 56.23003 82.59601 29217 ft 405 kts 340°
2026-04-28 10:22 56.25639 82.57811 29609 ft 404 kts 341°
2026-04-28 10:23 56.28274 82.56025 30021 ft 403 kts 341°
2026-04-28 10:23 56.30896 82.54247 30440 ft 402 kts 341°
2026-04-28 10:23 56.33478 82.52496 30774 ft 401 kts 341°
2026-04-28 10:23 56.36094 82.50709 30972 ft 402 kts 340°
2026-04-28 10:24 56.38705 82.48932 31298 ft 401 kts 340°
2026-04-28 10:24 56.41314 82.47158 31647 ft 399 kts 340°
2026-04-28 10:24 56.43915 82.45388 31953 ft 399 kts 340°
2026-04-28 10:24 56.46514 82.43615 32227 ft 399 kts 340°
2026-04-28 10:25 56.49109 82.41841 32517 ft 398 kts 340°
2026-04-28 10:25 56.51704 82.40063 32824 ft 398 kts 340°
2026-04-28 10:25 56.54256 82.38312 33117 ft 397 kts 340°
2026-04-28 10:25 56.56846 82.36533 33397 ft 397 kts 340°
2026-04-28 10:26 56.59431 82.34753 33688 ft 396 kts 340°
2026-04-28 10:26 56.62003 82.32980 33981 ft 396 kts 340°
2026-04-28 10:26 56.64580 82.31201 34264 ft 395 kts 340°
2026-04-28 10:26 56.67152 82.29423 34505 ft 395 kts 340°
2026-04-28 10:27 56.68855 82.28244 34623 ft 396 kts 340°
2026-04-28 10:27 56.71437 82.26455 34761 ft 398 kts 340°
2026-04-28 10:27 56.74031 82.24655 34905 ft 399 kts 340°
2026-04-28 10:27 56.77511 82.22235 35116 ft 401 kts 339°
2026-04-28 10:28 56.82739 82.18591 35425 ft 403 kts 339°
2026-04-28 10:29 56.89762 82.13680 35789 ft 407 kts 339°
2026-04-28 10:29 56.92409 82.11824 35947 ft 408 kts 339°
2026-04-28 10:29 56.95031 82.09982 36094 ft 409 kts 339°
2026-04-28 10:29 56.97646 82.07918 36231 ft 410 kts 332°
2026-04-28 10:30 57.00057 82.05093 36357 ft 412 kts 325°
2026-04-28 10:30 57.04231 81.97949 36375 ft 415 kts 311°
2026-04-28 10:31 57.07783 81.89556 36365 ft 416 kts 310°
2026-04-28 10:31 57.11296 81.81112 36364 ft 416 kts 310°
2026-04-28 10:32 57.14810 81.72709 36369 ft 415 kts 311°
2026-04-28 10:32 57.18340 81.64284 36349 ft 415 kts 310°
2026-04-28 10:33 57.21869 81.55850 36352 ft 414 kts 310°
2026-04-28 10:33 57.25386 81.47415 36359 ft 414 kts 310°
2026-04-28 10:34 57.28896 81.38967 36356 ft 414 kts 310°
2026-04-28 10:34 57.32378 81.30556 36350 ft 414 kts 310°
2026-04-28 10:35 57.35878 81.22069 36363 ft 414 kts 310°
2026-04-28 10:35 57.39353 81.13615 36362 ft 415 kts 310°
2026-04-28 10:36 57.42850 81.05079 36349 ft 415 kts 310°
2026-04-28 10:36 57.46339 80.96530 36322 ft 415 kts 310°
2026-04-28 10:37 57.49811 80.87992 36337 ft 414 kts 310°
2026-04-28 10:37 57.53257 80.79487 36349 ft 413 kts 310°
2026-04-28 10:38 57.56715 80.70925 36348 ft 413 kts 310°
2026-04-28 10:38 57.60165 80.62348 36354 ft 413 kts 309°
2026-04-28 10:39 57.63608 80.53766 36347 ft 413 kts 309°
2026-04-28 10:39 57.67043 80.45173 36348 ft 413 kts 309°
2026-04-28 10:40 57.70476 80.36568 36347 ft 413 kts 309°
2026-04-28 10:40 57.73904 80.27945 36349 ft 412 kts 309°
2026-04-28 10:41 57.77322 80.19315 36332 ft 412 kts 309°
2026-04-28 10:41 57.80709 80.10731 36337 ft 411 kts 309°
2026-04-28 10:42 57.84109 80.02084 36350 ft 412 kts 309°
2026-04-28 10:42 57.87499 79.93429 36340 ft 412 kts 309°
2026-04-28 10:43 57.90889 79.84743 36341 ft 412 kts 309°
2026-04-28 10:43 57.94273 79.76046 36341 ft 411 kts 309°
2026-04-28 10:44 57.97641 79.67336 36337 ft 412 kts 308°
2026-04-28 10:44 58.00959 79.58617 36336 ft 412 kts 308°
2026-04-28 10:45 58.04284 79.49826 36325 ft 411 kts 308°
2026-04-28 10:45 58.07605 79.41022 36334 ft 411 kts 308°
2026-04-28 10:46 58.10925 79.32195 36326 ft 412 kts 308°
2026-04-28 10:46 58.14238 79.23357 36324 ft 412 kts 308°
2026-04-28 10:47 58.17553 79.14481 36337 ft 413 kts 307°
2026-04-28 10:47 58.20864 79.05584 36331 ft 413 kts 307°
2026-04-28 10:48 58.24170 78.96666 36316 ft 413 kts 307°
2026-04-28 10:48 58.27469 78.87732 36341 ft 413 kts 307°
2026-04-28 10:49 58.30769 78.78762 36289 ft 413 kts 307°
2026-04-28 10:49 58.34033 78.69858 36312 ft 413 kts 307°
2026-04-28 10:50 58.37314 78.60872 36321 ft 413 kts 307°
2026-04-28 10:50 58.40586 78.51878 36323 ft 413 kts 307°
2026-04-28 10:51 58.43858 78.42851 36321 ft 413 kts 307°
2026-04-28 10:51 58.47126 78.33798 36317 ft 413 kts 307°
2026-04-28 10:52 58.50389 78.24727 36312 ft 414 kts 306°
2026-04-28 10:52 58.53624 78.15698 36311 ft 413 kts 306°
2026-04-28 10:53 58.56874 78.06592 36311 ft 414 kts 306°
2026-04-28 10:53 58.60113 77.97481 36307 ft 413 kts 306°
2026-04-28 10:54 58.63323 77.88420 36315 ft 413 kts 305°
2026-04-28 10:54 58.66518 77.79365 36311 ft 414 kts 305°
2026-04-28 10:55 58.69752 77.70165 36312 ft 415 kts 305°
2026-04-28 10:55 58.72976 77.60957 36312 ft 415 kts 305°
2026-04-28 10:56 58.76200 77.51713 36303 ft 415 kts 305°
2026-04-28 10:56 58.79400 77.42501 36305 ft 416 kts 305°
2026-04-28 10:57 58.82632 77.33162 36295 ft 416 kts 305°
2026-04-28 10:57 58.85823 77.23905 36291 ft 416 kts 304°
2026-04-28 10:58 58.89021 77.14591 36293 ft 416 kts 304°
2026-04-28 10:58 58.92215 77.05250 36301 ft 416 kts 304°
2026-04-28 10:59 58.95412 76.95866 36310 ft 417 kts 304°
2026-04-28 10:59 58.98582 76.86523 36298 ft 417 kts 304°
2026-04-28 11:00 59.01770 76.77085 36296 ft 418 kts 303°
2026-04-28 11:00 59.04941 76.67661 36297 ft 418 kts 304°
2026-04-28 11:01 59.08116 76.58201 36297 ft 418 kts 303°
2026-04-28 11:01 59.11397 76.48875 36289 ft 417 kts 310°
2026-04-28 11:02 59.15534 76.40951 36287 ft 417 kts 316°
2026-04-28 11:02 59.19770 76.33225 36297 ft 417 kts 316°
2026-04-28 11:03 59.23954 76.25492 36287 ft 417 kts 315°
2026-04-28 11:03 59.28152 76.17662 36284 ft 417 kts 315°
2026-04-28 11:04 59.32351 76.09795 36285 ft 417 kts 315°
2026-04-28 11:04 59.36536 76.01929 36282 ft 417 kts 315°
2026-04-28 11:05 59.40715 75.94049 36281 ft 417 kts 315°
2026-04-28 11:05 59.44871 75.86185 36285 ft 417 kts 315°
2026-04-28 11:06 59.49043 75.78266 36281 ft 417 kts 315°
2026-04-28 11:06 59.53216 75.70316 36281 ft 417 kts 315°
2026-04-28 11:07 59.57383 75.62346 36279 ft 417 kts 315°
2026-04-28 11:07 59.59479 75.58328 35990 ft 422 kts 315°
2026-04-28 11:07 59.61583 75.54285 35518 ft 419 kts 315°
2026-04-28 11:07 59.63672 75.50265 34817 ft 419 kts 315°
2026-04-28 11:08 59.65757 75.46243 34153 ft 418 kts 314°
2026-04-28 11:08 59.67842 75.42217 33395 ft 418 kts 314°
2026-04-28 11:08 59.69923 75.38192 32685 ft 418 kts 314°
2026-04-28 11:08 59.71975 75.34215 31964 ft 418 kts 314°
2026-04-28 11:09 59.74078 75.30212 31225 ft 419 kts 317°
2026-04-28 11:09 59.76396 75.26679 30492 ft 422 kts 325°
2026-04-28 11:09 59.78957 75.23787 29652 ft 424 kts 328°
2026-04-28 11:09 59.81556 75.21007 28965 ft 421 kts 329°
2026-04-28 11:10 59.84119 75.18271 28375 ft 416 kts 328°
2026-04-28 11:10 59.86648 75.15553 27836 ft 410 kts 328°
2026-04-28 11:10 59.89149 75.12843 27291 ft 406 kts 328°
2026-04-28 11:10 59.91616 75.10153 26751 ft 402 kts 328°
2026-04-28 11:11 59.94027 75.07510 26210 ft 399 kts 328°
2026-04-28 11:11 59.96450 75.04845 25682 ft 396 kts 328°
2026-04-28 11:11 59.98858 75.02191 25152 ft 393 kts 328°
2026-04-28 11:11 60.01256 74.99542 24634 ft 394 kts 328°
2026-04-28 11:12 60.03683 74.96851 24122 ft 405 kts 328°
2026-04-28 11:12 60.06170 74.94090 23501 ft 408 kts 328°
2026-04-28 11:12 60.08644 74.91347 22892 ft 404 kts 328°
2026-04-28 11:12 60.11088 74.88634 22351 ft 399 kts 327°
2026-04-28 11:13 60.13499 74.85953 21805 ft 394 kts 327°
2026-04-28 11:13 60.15080 74.84193 21449 ft 391 kts 327°
2026-04-28 11:13 60.17448 74.81549 20937 ft 388 kts 327°
2026-04-28 11:13 60.19800 74.78919 20406 ft 384 kts 327°
2026-04-28 11:14 60.22882 74.75464 19718 ft 381 kts 327°
2026-04-28 11:14 60.25185 74.72878 19206 ft 378 kts 327°
2026-04-28 11:14 60.27482 74.70293 18702 ft 376 kts 327°
2026-04-28 11:14 60.28993 74.68591 18347 ft 375 kts 327°
2026-04-28 11:15 60.31263 74.66031 17778 ft 373 kts 327°
2026-04-28 11:15 60.33531 74.63471 17235 ft 370 kts 327°
2026-04-28 11:15 60.35773 74.60936 16720 ft 367 kts 327°
2026-04-28 11:15 60.37990 74.58424 16191 ft 365 kts 327°
2026-04-28 11:16 60.40213 74.55901 15561 ft 367 kts 327°
2026-04-28 11:16 60.42434 74.53379 15032 ft 365 kts 327°
2026-04-28 11:16 60.44617 74.50896 14553 ft 363 kts 327°
2026-04-28 11:16 60.46812 74.48398 14055 ft 361 kts 327°
2026-04-28 11:17 60.49001 74.45900 13499 ft 360 kts 327°
2026-04-28 11:17 60.51175 74.43416 12976 ft 357 kts 326°
2026-04-28 11:17 60.53331 74.40948 12480 ft 355 kts 326°
2026-04-28 11:17 60.55475 74.38492 11981 ft 352 kts 326°
2026-04-28 11:18 60.57601 74.36051 11509 ft 350 kts 326°
2026-04-28 11:18 60.59711 74.33627 11205 ft 343 kts 326°
2026-04-28 11:18 60.61757 74.31292 11051 ft 332 kts 326°
2026-04-28 11:18 60.63748 74.29038 10902 ft 322 kts 326°
2026-04-28 11:19 60.65675 74.26854 10756 ft 312 kts 326°
2026-04-28 11:19 60.67549 74.24727 10624 ft 303 kts 326°
2026-04-28 11:19 60.69343 74.22685 10499 ft 295 kts 325°
2026-04-28 11:19 60.71132 74.20644 10399 ft 287 kts 325°
2026-04-28 11:20 60.72824 74.18710 10265 ft 279 kts 325°
2026-04-28 11:20 60.74483 74.16809 10084 ft 274 kts 324°
2026-04-28 11:20 60.76121 74.14926 9786 ft 273 kts 325°
2026-04-28 11:20 60.77773 74.13029 9511 ft 271 kts 325°
2026-04-28 11:21 60.79411 74.11147 9248 ft 269 kts 325°
2026-04-28 11:21 60.81040 74.09274 8976 ft 268 kts 325°
2026-04-28 11:21 60.82657 74.07413 8720 ft 266 kts 325°
2026-04-28 11:21 60.84272 74.05592 8460 ft 265 kts 329°
2026-04-28 11:22 60.86009 74.04314 8253 ft 265 kts 339°
2026-04-28 11:22 60.87790 74.03324 7978 ft 264 kts 340°
2026-04-28 11:22 60.89564 74.02383 7717 ft 263 kts 340°
2026-04-28 11:22 60.91330 74.01437 7471 ft 261 kts 340°
2026-04-28 11:23 60.93080 74.00482 7218 ft 260 kts 340°
2026-04-28 11:23 60.94824 73.99514 6959 ft 259 kts 339°
2026-04-28 11:23 60.96558 73.98540 6715 ft 258 kts 339°
2026-04-28 11:23 60.98286 73.97562 6461 ft 257 kts 339°
2026-04-28 11:24 61.00012 73.96579 6173 ft 257 kts 339°
2026-04-28 11:24 61.01729 73.95597 5902 ft 256 kts 339°
2026-04-28 11:24 61.03437 73.94618 5656 ft 254 kts 339°
2026-04-28 11:24 61.05140 73.93639 5404 ft 253 kts 339°
2026-04-28 11:25 61.06832 73.92663 5152 ft 252 kts 339°
2026-04-28 11:25 61.08516 73.91691 4903 ft 251 kts 339°
2026-04-28 11:25 61.10198 73.90717 4638 ft 250 kts 339°
2026-04-28 11:25 61.11866 73.89751 4399 ft 249 kts 340°
2026-04-28 11:26 61.13531 73.88786 4148 ft 248 kts 340°
2026-04-28 11:26 61.15194 73.87818 3895 ft 248 kts 340°
2026-04-28 11:26 61.16851 73.86854 3644 ft 247 kts 339°
2026-04-28 11:26 61.18514 73.85884 3299 ft 251 kts 340°
2026-04-28 11:27 61.20202 73.84899 2994 ft 253 kts 340°
2026-04-28 11:27 61.21902 73.83909 2729 ft 254 kts 340°
2026-04-28 11:27 61.23598 73.82919 2521 ft 251 kts 340°
2026-04-28 11:27 61.25260 73.81950 2399 ft 245 kts 340°
2026-04-28 11:28 61.26888 73.81000 2292 ft 241 kts 340°
2026-04-28 11:28 61.28444 73.79958 2198 ft 227 kts 327°
2026-04-28 11:28 61.29515 73.77907 2094 ft 203 kts 300°
2026-04-28 11:28 61.30307 73.75592 1988 ft 190 kts 299°
2026-04-28 11:29 61.31052 73.73421 1895 ft 181 kts 298°
2026-04-28 11:29 61.31794 73.71245 1834 ft 185 kts 298°
2026-04-28 11:29 61.32529 73.69090 1745 ft 178 kts 298°
2026-04-28 11:29 61.33227 73.67047 1678 ft 169 kts 298°
2026-04-28 11:30 61.33890 73.65101 1532 ft 162 kts 298°
2026-04-28 11:30 61.34401 73.61039 1540 ft 152 kts 264°
2026-04-28 11:30 61.34428 73.58849 1487 ft 148 kts 264°
2026-04-28 11:31 61.34442 73.56706 1525 ft 151 kts 263°
2026-04-28 11:31 61.34439 73.54496 1318 ft 150 kts 264°
2026-04-28 11:31 61.34433 73.52361 1123 ft 146 kts 263°
2026-04-28 11:31 61.34421 73.50179 935 ft 153 kts 264°
2026-04-28 11:32 61.34406 73.47938 693 ft 155 kts 263°
2026-04-28 11:32 61.34408 73.45691 487 ft 153 kts 265°
2026-04-28 11:32 61.34404 73.43527 306 ft 146 kts 263°
2026-04-28 11:32 61.34390 73.41487 214 ft 130 kts 265°
2026-04-28 11:33 61.34383 73.39501 209 ft 115 kts 270°
2026-04-28 11:33 61.34381 73.38189 199 ft 39 kts 270°
2026-04-28 11:33 61.34364 73.38047 208 ft 9 kts 215°
2026-04-28 11:33 61.34323 73.38035 203 ft 0 kts 178°
2026-04-28 11:34 61.34314 73.38036 206 ft 3 kts 174°
2026-04-28 11:34 61.34301 73.38042 206 ft 0 kts 166°
2026-04-28 11:34 61.34297 73.38045 209 ft 2 kts 163°
2026-04-28 11:35 61.34108 73.38213 211 ft 0 kts 163°
2026-04-28 11:36 61.34121 73.40346 207 ft 0 kts 179°